Tracking 20628 objects as of 5-Apr-2020
HD Live streaming from Space Station
objects crossing your sky now

OPS 9323 (IDSCS 10)

Track OPS 9323 (IDSCS 10) now!
OPS 9323 (IDSCS 10) is classified as:


NORAD ID: 2650
Int'l Code: 1967-003C
Perigee: 33,559.0 km
Apogee: 33,846.3 km
Inclination: 4.2 °
Period: 1,330.6 minutes
Semi major axis: 40073 km
RCS: 0.003 m2 (small)
Launch date: January 18, 1967
Source: United States (US)
Launch site: AIR FORCE EASTERN TEST RANGE (AFETR)
aabbcc
Your satellite tracking list
Your tracking list is empty




NASA's NSSDC Master Catalog

Two Line Element Set (TLE):
1  2650U 67003C   20095.32493215 -.00000086  00000-0  00000+0 0  9998
2  2650   4.1553  57.8979 0035857  46.1599 163.4457  1.08221752115926
Source of the keplerian elements: AFSPC